FW2738 Weather Reports


Display with metric or nautical units.
time (UTC)temp
F
wind
direction
speed
MPH
gust
MPH
rain 1hr
in
rain 24hr
in
rain mn
in
humidity
%
barometer
mb
20260903103003 76 136 9.0 17.0 0.00 0.00 0.00 87 1011.5
20260903101503 76 144 10.0 19.0 0.00 0.00 0.00 86 1011.6
20260903100002 76 146 9.0 15.0 0.00 0.00 0.00 87 1011.5
20260903094501 76 126 7.0 12.0 0.00 0.00 0.00 87 1011.5
20260903093133 76 156 6.0 13.0 0.00 0.00 0.00 87 1011.6
20260903091558 77 150 8.0 17.0 0.00 0.00 0.00 84 1011.6
20260903090059 77 113 10.0 19.0 0.00 0.00 0.00 83 1011.7
20260903084554 78 124 10.0 16.0 0.00 0.00 0.00 80 1011.7
20260903083054 78 150 10.0 19.0 0.00 0.00 0.00 80 1011.7
20260903081552 78 125 11.0 18.0 0.00 0.00 0.00 79 1011.6
20260903080103 78 130 11.0 17.0 0.00 0.00 0.00 79 1011.7
20260903074607 78 131 8.0 23.0 0.00 0.00 0.00 78 1011.5
20260903073059 78 111 9.0 19.0 0.00 0.00 0.00 78 1011.7
20260903071548 79 123 12.0 19.0 0.00 0.00 0.00 76 1011.7
20260903070043 79 153 8.0 16.0 0.00 0.00 0.00 74 1011.9
20260903064545 79 98 7.0 11.0 0.00 0.00 0.00 74 1011.9
20260903063041 79 112 4.0 10.0 0.00 0.00 0.00 74 1011.9
20260903061544 79 86 2.0 5.0 0.00 0.00 0.00 73 1012.0
20260903060037 79 106 3.0 9.0 0.00 0.00 0.00 73 1012.1
20260903054536 79 105 3.0 7.0 0.00 0.00 0.00 73 1012.2
20260903053033 79 124 4.0 10.0 0.00 0.00 0.00 72 1012.4
20260903051531 80 122 8.0 15.0 0.00 0.00 0.00 71 1012.5
20260903050031 80 130 9.0 16.0 0.00 0.00 0.00 70 1012.5
20260903044527 81 127 11.0 19.0 0.00 0.00 0.00 68 1012.5
20260903043026 82 125 9.0 16.0 0.00 0.00 0.00 66 1012.2
20260903041536 82 113 6.0 13.0 0.00 0.00 0.00 65 1012.4
20260903040026 83 130 8.0 12.0 0.00 0.00 0.00 64 1012.4
20260903034531 83 142 5.0 10.0 0.00 0.00 0.00 63 1012.3
20260903033038 84 134 4.0 9.0 0.00 0.00 0.00 61 1012.2
20260903031524 85 122 6.0 12.0 0.00 0.00 0.00 59 1012.2
20260903030025 85 104 8.0 14.0 0.00 0.00 0.00 58 1012.1
20260903024524 86 150 6.0 12.0 0.00 0.00 0.00 58 1012.0
20260903023023 87 132 6.0 12.0 0.00 0.00 0.00 57 1011.8
20260903021523 87 115 7.0 11.0 0.00 0.00 0.00 55 1011.4
20260903020022 88 119 6.0 9.0 0.00 0.00 0.00 54 1011.3
20260903014525 88 114 6.0 10.0 0.00 0.00 0.00 53 1011.1
20260903013031 89 142 8.0 13.0 0.00 0.00 0.00 52 1011.0
20260903011521 90 109 12.0 17.0 0.00 0.00 0.00 51 1010.8
20260903010021 90 105 11.0 18.0 0.00 0.00 0.00 51 1010.7
20260903004538 91 107 12.0 17.0 0.00 0.00 0.00 51 1010.6
20260903003019 91 108 12.0 19.0 0.00 0.00 0.00 51 1010.4
20260903001519 91 112 10.0 18.0 0.00 0.00 0.00 51 1010.3
20260903000019 92 108 12.0 19.0 0.00 0.00 0.00 51 1010.2
20260902234518 95 105 11.0 15.0 0.00 0.00 0.00 45 1010.1
20260902233018 95 94 7.0 13.0 0.00 0.00 0.00 44 1010.1
20260902231518 96 101 7.0 15.0 0.00 0.00 0.00 44 1010.0
20260902230017 96 94 5.0 13.0 0.00 0.00 0.00 44 1010.0
20260902224514 96 104 4.0 13.0 0.00 0.00 0.00 43 1010.1
20260902223014 95 88 7.0 11.0 0.00 0.00 0.00 44 1010.1
20260902221520 96 100 9.0 17.0 0.00 0.00 0.00 42 1010.1
20260902220012 97 71 6.0 17.0 0.00 0.00 0.00 41 1010.3
20260902214513 96 37 5.0 16.0 0.00 0.00 0.00 42 1010.4
20260902213022 97 75 10.0 24.0 0.00 0.00 0.00 41 1010.4
20260902211507 96 85 11.0 18.0 0.00 0.00 0.00 41 1010.6
20260902210014 96 120 11.0 17.0 0.00 0.00 0.00 41 1010.9
20260902204504 95 102 5.0 16.0 0.00 0.00 0.00 42 1011.1
20260902203003 95 76 7.0 17.0 0.00 0.00 0.00 42 1011.3
20260902201500 95 69 11.0 16.0 0.00 0.00 0.00 42 1011.5
20260902200100 95 93 3.0 13.0 0.00 0.00 0.00 43 1011.5
20260902194557 95 171 3.0 16.0 0.00 0.00 0.00 45 1011.8
20260902193057 95 192 3.0 14.0 0.00 0.00 0.00 44 1012.1
20260902191556 93 9 2.0 13.0 0.00 0.00 0.00 46 1012.4
20260902190052 93 32 6.0 11.0 0.00 0.00 0.00 46 1012.4
20260902184558 94 57 9.0 14.0 0.00 0.00 0.00 46 1012.8
20260902183054 94 13 5.0 13.0 0.00 0.00 0.00 47 1013.1
20260902181548 93 150 1.0 12.0 0.00 0.00 0.00 50 1013.4
20260902180042 92 84 5.0 13.0 0.00 0.00 0.00 50 1013.6
20260902174541 92 61 6.0 12.0 0.00 0.00 0.00 49 1013.9
20260902173039 92 110 2.0 12.0 0.00 0.00 0.00 51 1014.1
20260902171538 90 86 5.0 15.0 0.00 0.00 0.00 52 1014.3
20260902170039 91 148 9.0 17.0 0.00 0.00 0.00 53 1014.5
20260902164537 89 115 2.0 13.0 0.00 0.00 0.00 56 1014.7
20260902163139 90 78 4.0 9.0 0.00 0.00 0.00 55 1014.8
20260902161533 88 151 3.0 9.0 0.00 0.00 0.00 58 1014.9
20260902160031 88 198 5.0 13.0 0.00 0.00 0.00 58 1015.0
20260902154534 87 86 6.0 11.0 0.00 0.00 0.00 60 1014.9
20260902153027 87 121 4.0 9.0 0.00 0.00 0.00 62 1014.8
20260902151525 86 86 3.0 8.0 0.00 0.00 0.00 65 1014.8
20260902150023 85 171 4.0 8.0 0.00 0.00 0.00 67 1014.8
20260902144525 84 75 2.0 7.0 0.00 0.00 0.00 68 1014.7
20260902143024 83 148 2.0 7.0 0.00 0.00 0.00 70 1014.7
20260902141520 82 169 0.0 8.0 0.00 0.00 0.00 70 1014.6
20260902140019 81 111 5.0 11.0 0.00 0.00 0.00 72 1014.7
20260902134518 81 127 4.0 8.0 0.00 0.00 0.00 72 1014.6
20260902133017 80 126 7.0 10.0 0.00 0.00 0.00 73 1014.6
20260902131516 79 138 4.0 10.0 0.00 0.00 0.00 74 1014.5
20260902130014 78 114 4.0 7.0 0.00 0.00 0.00 75 1014.4
20260902124512 77 110 2.0 3.0 0.00 0.00 0.00 76 1014.2
20260902123012 76 96 1.0 4.0 0.00 0.00 0.00 77 1014.2
20260902121512 76 107 2.0 6.0 0.00 0.00 0.00 78 1014.1
20260902120012 76 111 1.0 4.0 0.00 0.00 0.00 77 1014.1
20260902114514 77 109 3.0 8.0 0.00 0.00 0.00 77 1014.1
20260902113013 77 137 2.0 6.0 0.00 0.00 0.00 76 1014.1
20260902111509 77 114 2.0 4.0 0.00 0.00 0.00 76 1014.1
20260902110017 77 125 3.0 6.0 0.00 0.00 0.00 76 1014.3
20260902104509 76 124 2.0 4.0 0.00 0.00 0.00 78 1014.2